METEOR 2-8 DEB

Satellite information

Favourite Embed

Satellite Type and Status

DEBRISIN ORBIT

Key statistics

Satellite METEOR 2-8 DEB at a glance.

Uptime

15923

Days in orbit

Revolutions

≈ 14.1

Per day

Orbit

LEO

Low Earth Orbit

Inclination

82.5

Latest

Satellite identification and parameters

Extended collection of information and parameters for METEOR 2-8 DEB.

Object identification

Identified? True

Debris? True

Object name: METEOR 2-8 DEB

International designator: 1982-025M

Object number (NORAD): 36327

Object ID (CCSDS): 36327

Country: COMMONWEALTH OF INDEPENDENT STATES (CIS)

Current information (Y/N): Y

RCS size: SMALL

Orbital parameters

Period: 101.917 minutes

Inclination: 82.5003 deg

SMA: 7227.53 km

Apoapsis: 855.045 km

Periapsis: 843.745 km

RAAN: 51.677 deg

Eccentricy: 0.0007817

Argument of periapsis: 48.6546 deg

Mean anomaly: 311.5302 deg

Mean motion: 14.12921146 rev/day

Mean motion (dot): 0.00014444 rev/day2

B* drag term: 0.00774 1/REarth

Two-line elements (TLE)

Creation date: March 21, 2025, 1:56 p.m.

Reference frame: TEME

Reference center: EARTH

Epoch: Oct. 13, 2024, 1:22 a.m. UTC

TLE line 0: 0 METEOR 2-8 DEB

TLE line 1: 1 36327U 82025M 24287.05737402 .00014444 00000-0 77400-2 0 9996

TLE line 2: 2 36327 82.5003 51.6770 0007817 48.6546 311.5302 14.12921146 50879

Live tracking on map

Real-time ground track for satellite METEOR 2-8 DEB.

In-orbit conjunctions

A list of the most updated potential collisions computed for object METEOR 2-8 DEB.

Target Orbit TCA Probability of collision Miss distance Type
CZ-6A DEB SSO 2024-09-27 04:10:48 0.0001140326 912.0 (m) DEBRIS

Associated space launch

Second generation soviet meteorological satellite

METEOR 2-8 DEB was lifted into orbit during the mission ‘Tsiklon-3 | Meteor-2 8’, on board a Tsiklon-3 space rocket.

The launch took place on March 25, 1982, 9:50 a.m. from 32/1.

For more information about the launch, click the button.

Launch to space Tsiklon-3 | Meteor-2 8
Tsiklon-3 | Meteor-2 8

Agency: N/A

Status: Launch Successful

Launch date: March 25, 1982, 9:50 a.m. UTC

Rocket: Tsiklon-3

Launch pad: 32/1

Location: Plesetsk Cosmodrome, Russian Federation

...

Latest news about this satellite

There are no fresh news available about this satellite. Check back as we update our databases every day.


Newsletter sign-up

Weekly statistics, charts and insights to help you stay on top of the space industry.